Port Huron, MI

3:40 PM EDT on March 27, 2017 (GMT -0400)
Saint Clair County International

Weather History for KPHN - January, 2013

Change the Weather History Date:

Wednesday, January 9, 2013

  Actual Average (KMTC) Record (KMTC)
Temperature  
Mean Temperature 34 °F -  
Max Temperature 48 °F 27 °F 53 °F (1949)
Min Temperature 19 °F 16 °F -7 °F (2014)
Degree Days  
Heating Degree Days 32    
Moisture  
Dew Point 28 °F    
Average Humidity 68    
Maximum Humidity 100    
Minimum Humidity 40    
Precipitation  
Precipitation 0.00 in - - ()
Sea Level Pressure  
Sea Level Pressure 30.14 in    
Wind  
Wind Speed 7 mph (SW)    
Max Wind Speed 16 mph    
Max Gust Speed 29 mph    
Visibility 9 miles    
Events      
Averages and records for this station are not official NWS values.
T = Trace of Precipitation, MM = Missing Value Source: NWS Daily Summary

Daily Weather History Graph

Daily Weather History Graph

Search for Another Location

Airport or City:

Trip Planner

Search our weather history database for the weather conditions in past years. The results will help you decide how hot, cold, wet, or windy it might be!

Date:

Astronomy

Jan. 09, 2013 Rise Set
Actual Time 8:00 AM EST 5:14 PM EST
Civil Twilight 7:28 AM EST 5:46 PM EST
Nautical Twilight 6:53 AM EST 6:21 PM EST
Astronomical Twilight 6:19 AM EST 6:55 PM EST
Moon 5:38 AM EST (1/9) 3:14 PM EST (1/9)
Length of Visible Light 10h 17m
Length of Day
9h 14m
Waning Crescent, 6% of the Moon is Illuminated
Jan 9
Waning Crescent
Jan 11
New
Jan 18
First Quarter
Jan 26
Full
Feb 3
Last Quarter

Hourly Weather History & Observations

Time (EST) Temp. Windchill Dew Point Humidity Pressure Visibility Wind Dir Wind Speed Gust Speed Precip Events Conditions
12:18 AM 23.0 °F - 21.2 °F 93% 30.16 in 2.5 mi Calm Calm - N/A   Clear
12:37 AM 19.4 °F - 17.6 °F 93% 30.16 in 1.8 mi Calm Calm - N/A   Mist
12:57 AM 24.8 °F 20.5 °F 23.0 °F 93% 30.16 in 3.0 mi South 3.5 mph - N/A   Clear
1:18 AM 24.8 °F 19.1 °F 24.8 °F 100% 30.14 in 4.0 mi South 4.6 mph - N/A   Clear
1:37 AM 26.6 °F 21.2 °F 24.8 °F 93% 30.14 in 5.0 mi SSW 4.6 mph - N/A   Clear
1:58 AM 28.4 °F 20.4 °F 26.6 °F 93% 30.13 in 7.0 mi South 8.1 mph - N/A   Clear
2:17 AM 30.2 °F 23.4 °F 26.6 °F 86% 30.12 in 7.0 mi South 6.9 mph - N/A   Clear
2:37 AM 30.2 °F 24.3 °F 28.4 °F 93% 30.11 in 7.0 mi South 5.8 mph - N/A   Clear
2:57 AM 32.0 °F 25.6 °F 28.4 °F 87% 30.11 in 7.0 mi South 6.9 mph - N/A   Clear
3:17 AM 32.0 °F 25.6 °F 28.4 °F 87% 30.10 in 7.0 mi South 6.9 mph - N/A   Clear
3:38 AM 32.0 °F 24.8 °F 28.4 °F 87% 30.10 in 10.0 mi South 8.1 mph - N/A   Clear
3:57 AM 33.8 °F 26.4 °F 30.2 °F 87% 30.11 in 10.0 mi SSW 9.2 mph - N/A   Clear
4:17 AM 33.8 °F 24.3 °F 30.2 °F 87% 30.10 in 10.0 mi South 13.8 mph - N/A   Scattered Clouds
4:37 AM 35.6 °F 27.1 °F 30.2 °F 81% 30.08 in 10.0 mi South 12.7 mph 17.3 mph N/A   Mostly Cloudy
4:57 AM 35.6 °F 27.1 °F 30.2 °F 81% 30.06 in 10.0 mi South 12.7 mph - N/A   Overcast
5:18 AM 35.6 °F 27.1 °F 30.2 °F 81% 30.05 in 10.0 mi South 12.7 mph 16.1 mph N/A   Overcast
5:37 AM 35.6 °F 27.1 °F 32.0 °F 87% 30.03 in 10.0 mi South 12.7 mph 18.4 mph N/A   Overcast
5:57 AM 37.4 °F 29.8 °F 32.0 °F 81% 30.03 in 10.0 mi SSW 11.5 mph - N/A   Overcast
6:17 AM 37.4 °F 29.3 °F 32.0 °F 81% 30.04 in 10.0 mi SSW 12.7 mph - N/A   Overcast
6:37 AM 37.4 °F 30.3 °F 32.0 °F 81% 30.05 in 10.0 mi SSW 10.4 mph - N/A   Overcast
6:58 AM 37.4 °F 28.9 °F 32.0 °F 81% 30.02 in 10.0 mi South 13.8 mph - N/A   Overcast
7:17 AM 37.4 °F 29.8 °F 32.0 °F 81% 30.02 in 10.0 mi South 11.5 mph - N/A   Overcast
7:37 AM 37.4 °F 31.4 °F 32.0 °F 81% 30.01 in 10.0 mi SSW 8.1 mph - N/A   Overcast
7:57 AM 37.4 °F 30.8 °F 32.0 °F 81% 30.01 in 10.0 mi SSW 9.2 mph - N/A   Overcast
8:17 AM 37.4 °F 30.3 °F 32.0 °F 81% 30.02 in 7.0 mi SSW 10.4 mph 16.1 mph N/A   Scattered Clouds
8:38 AM 37.4 °F 30.3 °F 32.0 °F 81% 30.02 in 10.0 mi SSW 10.4 mph 18.4 mph N/A   Clear
8:57 AM 37.4 °F 30.8 °F 32.0 °F 81% 30.02 in 10.0 mi SSW 9.2 mph - N/A   Clear
9:18 AM 39.2 °F 33.6 °F 32.0 °F 75% 30.02 in 10.0 mi SSW 8.1 mph - N/A   Clear
9:37 AM 41.0 °F 35.2 °F 32.0 °F 70% 30.03 in 10.0 mi SW 9.2 mph 16.1 mph N/A   Clear
9:57 AM 42.8 °F 37.0 °F 33.8 °F 70% 30.03 in 10.0 mi SW 10.4 mph 21.9 mph N/A   Clear
10:18 AM 42.8 °F 36.2 °F 32.0 °F 66% 30.04 in 10.0 mi WSW 12.7 mph 21.9 mph N/A   Clear
10:37 AM 42.8 °F 37.0 °F 32.0 °F 66% 30.04 in 10.0 mi WSW 10.4 mph 23.0 mph N/A   Clear
10:58 AM 42.8 °F 38.0 °F 32.0 °F 66% 30.04 in 10.0 mi WSW 8.1 mph 18.4 mph N/A   Clear
11:17 AM 44.6 °F 39.2 °F 32.0 °F 61% 30.04 in 10.0 mi WSW 10.4 mph 21.9 mph N/A   Clear
11:37 AM 44.6 °F 39.2 °F 32.0 °F 61% 30.05 in 10.0 mi WSW 10.4 mph 17.3 mph N/A   Clear
11:58 AM 44.6 °F 38.8 °F 32.0 °F 61% 30.05 in 10.0 mi WSW 11.5 mph 19.6 mph N/A   Clear
12:17 PM 46.4 °F 40.4 °F 32.0 °F 57% 30.04 in 10.0 mi WSW 13.8 mph 20.7 mph N/A   Clear
12:37 PM 46.4 °F 40.7 °F 30.2 °F 53% 30.04 in 10.0 mi WSW 12.7 mph 18.4 mph N/A   Clear
12:57 PM 46.4 °F 41.9 °F 30.2 °F 53% 30.04 in 10.0 mi West 9.2 mph 18.4 mph N/A   Clear
1:17 PM 46.4 °F 41.9 °F 30.2 °F 53% 30.04 in 10.0 mi WSW 9.2 mph 20.7 mph N/A   Clear
1:38 PM 46.4 °F 41.5 °F 28.4 °F 50% 30.04 in 10.0 mi WSW 10.4 mph 18.4 mph N/A   Clear
1:57 PM 46.4 °F 42.4 °F 28.4 °F 50% 30.05 in 10.0 mi West 8.1 mph 21.9 mph N/A   Clear
2:17 PM 48.2 °F - 26.6 °F 43% 30.05 in 10.0 mi WSW 5.8 mph 19.6 mph N/A   Clear
2:38 PM 48.2 °F - 24.8 °F 40% 30.06 in 10.0 mi WSW 11.5 mph 20.7 mph N/A   Clear
2:57 PM 48.2 °F - 24.8 °F 40% 30.07 in 10.0 mi West 13.8 mph 19.6 mph N/A   Clear
3:18 PM 48.2 °F - 24.8 °F 40% 30.09 in 10.0 mi West 16.1 mph 27.6 mph N/A   Clear
3:37 PM 48.2 °F - 24.8 °F 40% 30.09 in 10.0 mi West 12.7 mph 28.8 mph N/A   Clear
3:57 PM 46.4 °F 41.9 °F 24.8 °F 43% 30.10 in 10.0 mi WSW 9.2 mph 19.6 mph N/A   Clear
4:18 PM 46.4 °F 41.1 °F 24.8 °F 43% 30.11 in 10.0 mi West 11.5 mph 24.2 mph N/A   Clear
4:37 PM 46.4 °F 41.5 °F 24.8 °F 43% 30.13 in 10.0 mi West 10.4 mph 20.7 mph N/A   Clear
4:58 PM 46.4 °F 41.1 °F 24.8 °F 43% 30.14 in 10.0 mi West 11.5 mph 18.4 mph N/A   Clear
5:17 PM 44.6 °F 39.7 °F 23.0 °F 43% 30.16 in 10.0 mi West 9.2 mph 17.3 mph N/A   Clear
5:37 PM 44.6 °F 38.4 °F 23.0 °F 43% 30.17 in 10.0 mi West 12.7 mph 18.4 mph N/A   Clear
5:58 PM 44.6 °F 38.1 °F 23.0 °F 43% 30.19 in 10.0 mi West 13.8 mph 23.0 mph N/A   Clear
6:17 PM 42.8 °F 37.5 °F 24.8 °F 49% 30.20 in 10.0 mi West 9.2 mph 17.3 mph N/A   Clear
6:38 PM 42.8 °F 37.5 °F 26.6 °F 53% 30.22 in 10.0 mi West 9.2 mph 19.6 mph N/A   Clear
6:57 PM 42.8 °F 38.0 °F 26.6 °F 53% 30.24 in 10.0 mi West 8.1 mph 19.6 mph N/A   Clear
7:17 PM 41.0 °F 33.9 °F 26.6 °F 57% 30.27 in 10.0 mi West 12.7 mph 20.7 mph N/A   Clear
7:37 PM 41.0 °F 34.7 °F 26.6 °F 57% 30.28 in 10.0 mi West 10.4 mph 20.7 mph N/A   Clear
7:57 PM 41.0 °F 35.2 °F 26.6 °F 57% 30.30 in 10.0 mi West 9.2 mph 16.1 mph N/A   Clear
8:18 PM 41.0 °F 34.7 °F 26.6 °F 57% 30.32 in 10.0 mi West 10.4 mph 17.3 mph N/A   Clear
8:37 PM 39.2 °F 33.6 °F 26.6 °F 61% 30.34 in 10.0 mi West 8.1 mph 17.3 mph N/A   Clear
8:57 PM 39.2 °F 33.6 °F 26.6 °F 61% 30.36 in 10.0 mi West 8.1 mph - N/A   Clear
9:18 PM 39.2 °F 35.0 °F 26.6 °F 61% 30.37 in 10.0 mi WNW 5.8 mph - N/A   Clear
9:37 PM 37.4 °F 34.9 °F 26.6 °F 65% 30.38 in 10.0 mi West 3.5 mph - N/A   Clear
9:58 PM 37.4 °F 33.8 °F 26.6 °F 65% 30.38 in 10.0 mi NW 4.6 mph - N/A   Clear
10:17 PM 35.6 °F 31.7 °F 26.6 °F 70% 30.39 in 10.0 mi NW 4.6 mph - N/A   Clear
10:37 PM 35.6 °F 31.7 °F 24.8 °F 65% 30.40 in 10.0 mi WNW 4.6 mph - N/A   Clear
10:58 PM 35.6 °F - 24.8 °F 65% 30.40 in 10.0 mi Calm Calm - N/A   Clear
11:17 PM 33.8 °F - 24.8 °F 70% 30.40 in 10.0 mi Calm Calm - N/A   Clear
11:37 PM 30.2 °F - 24.8 °F 80% 30.41 in 10.0 mi Calm Calm - N/A   Clear
11:57 PM 30.2 °F - 24.8 °F 80% 30.41 in 10.0 mi Calm Calm - N/A   Clear